contact:dominique.lefevre@mio.osupytheas.fr, maurice.libes@osupytheas.fr, didier.mallarino@osupytheas.fr
Project:EMSO http://www.emso-fr.org/EMSO-France
Depth: 2436.0 m
Title:EMSO Ligure Ouest : Data MII capteur AQUADOPP
Date,Latitude,Longitude,X_East,Y_North,Z_Up,Amplitude_X,Amplitude_Y,Amplitude_Z,Batterie,SoundSpeed,Heading,Pitch,Roll,Pressure,TIS,Speed,Direction
, degrees North, degrees East, m.s-1, m.s-1,m.s-1, 1, 1, 1, Volt, m.s-1, degree, degree, degree, dbar, degree_C, m.s-1, degree
2023-10-01T00:04:03,42.805,6.029,0.061,-0.037,0.002,103.0,104.0,103.0,13.4,1505.2,326.5,-0.8,1.9,2471.474,13.28,0.071,121.2
2023-10-01T00:07:03,42.805,6.029,0.051,-0.061,-0.029,103.0,104.0,102.0,13.4,1505.2,327.3,-0.7,1.8,2471.515,13.28,0.079,140.1
2023-10-01T00:10:03,42.805,6.029,0.048,-0.043,-0.018,104.0,103.0,102.0,13.3,1505.2,338.3,-0.8,1.8,2471.493,13.28,0.064,131.9
2023-10-01T00:13:03,42.805,6.029,0.01,-0.017,0.013,104.0,102.0,103.0,13.4,1505.2,345.9,-0.8,1.8,2471.463,13.29,0.019,149.5
2023-10-01T00:16:03,42.805,6.029,0.017,-0.069,-0.022,104.0,103.0,102.0,13.4,1505.2,354.6,-0.8,1.8,2471.501,13.29,0.071,166.2
2023-10-01T00:19:03,42.805,6.029,0.034,-0.069,-0.034,103.0,103.0,103.0,13.4,1505.2,351.4,-0.8,1.8,2471.457,13.29,0.076,153.8
2023-10-01T00:22:03,42.805,6.029,0.05,-0.074,-0.057,104.0,103.0,102.0,13.3,1505.2,331.8,-0.8,1.8,2471.474,13.29,0.089,146.0
2023-10-01T00:25:03,42.805,6.029,0.029,-0.065,-0.045,104.0,103.0,102.0,13.4,1505.2,344.5,-0.8,1.8,2471.422,13.29,0.071,156.0
2023-10-01T00:28:03,42.805,6.029,0.035,-0.056,-0.021,104.0,103.0,103.0,13.3,1505.2,344.5,-0.7,1.8,2471.456,13.29,0.066,148.0
2023-10-01T00:31:03,42.805,6.029,0.004,-0.043,-0.048,103.0,103.0,102.0,13.4,1505.2,354.7,-0.8,1.8,2471.405,13.29,0.043,174.7
2023-10-01T00:34:03,42.805,6.029,0.047,-0.033,-0.033,103.0,102.0,103.0,13.4,1505.2,327.5,-0.8,1.8,2471.397,13.29,0.057,125.1
2023-10-01T00:37:03,42.805,6.029,0.036,-0.057,-0.022,103.0,104.0,102.0,13.3,1505.2,340.2,-0.7,1.8,2471.419,13.29,0.067,147.7
2023-10-01T00:40:03,42.805,6.029,0.046,-0.045,-0.05,104.0,101.0,103.0,13.4,1505.2,337.4,-0.8,1.8,2471.394,13.29,0.064,134.4
2023-10-01T00:43:03,42.805,6.029,0.033,-0.052,-0.018,104.0,104.0,102.0,13.4,1505.2,338.7,-0.7,1.8,2471.426,13.29,0.061,147.6
2023-10-01T00:46:03,42.805,6.029,0.043,-0.067,-0.053,103.0,103.0,102.0,13.4,1505.2,344.5,-0.8,1.8,2471.417,13.29,0.079,147.3
2023-10-01T00:49:03,42.805,6.029,0.033,-0.075,-0.018,104.0,103.0,102.0,13.3,1505.2,353.0,-0.8,1.8,2471.414,13.29,0.081,156.3
2023-10-01T00:52:03,42.805,6.029,0.056,-0.059,-0.05,102.0,103.0,103.0,13.4,1505.2,329.1,-0.8,1.8,2471.458,13.29,0.081,136.5
2023-10-01T00:55:03,42.805,6.029,0.034,-0.033,-0.004,104.0,103.0,103.0,13.4,1505.2,331.5,-0.8,1.8,2471.407,13.29,0.047,134.1
2023-10-01T00:58:03,42.805,6.029,0.042,-0.046,-0.017,104.0,103.0,102.0,13.4,1505.2,333.4,-0.8,1.8,2471.419,13.29,0.062,137.6
2023-10-01T01:04:03,42.805,6.029,0.022,-0.052,-0.006,105.0,103.0,103.0,13.4,1505.2,354.9,-0.8,1.8,2471.46,13.28,0.056,157.1
2023-10-01T01:07:03,42.805,6.029,0.042,-0.053,-0.012,103.0,102.0,102.0,13.4,1505.2,345.3,-0.8,1.8,2471.452,13.28,0.067,141.6
2023-10-01T01:10:03,42.805,6.029,0.043,-0.05,-0.028,102.0,104.0,103.0,13.4,1505.2,331.3,-0.8,1.8,2471.411,13.28,0.065,139.3
2023-10-01T01:13:03,42.805,6.029,0.035,-0.077,-0.064,104.0,103.0,102.0,13.3,1505.2,345.9,-0.8,1.8,2471.445,13.29,0.084,155.6
2023-10-01T01:16:03,42.805,6.029,0.055,-0.052,-0.026,104.0,103.0,102.0,13.3,1505.2,329.3,-0.8,1.8,2471.458,13.29,0.075,133.4
2023-10-01T01:19:03,42.805,6.029,0.039,-0.052,-0.051,103.0,103.0,102.0,13.4,1505.2,341.2,-0.8,1.8,2471.438,13.29,0.064,143.1
2023-10-01T01:22:02,42.805,6.029,0.031,-0.04,-0.035,104.0,102.0,102.0,13.3,1505.2,350.9,-0.7,1.8,2471.414,13.29,0.05,142.2
2023-10-01T01:25:03,42.805,6.029,0.035,-0.087,-0.044,104.0,104.0,102.0,13.4,1505.2,345.3,-0.8,1.8,2471.434,13.29,0.093,158.1
2023-10-01T01:28:03,42.805,6.029,0.046,-0.065,-0.035,104.0,103.0,102.0,13.3,1505.2,338.8,-0.7,1.8,2471.44,13.29,0.079,144.7
2023-10-01T01:31:03,42.805,6.029,0.053,-0.061,0.003,104.0,103.0,102.0,13.4,1505.2,342.5,-0.8,1.8,2471.402,13.29,0.08,139.0
2023-10-01T01:34:03,42.805,6.029,0.046,-0.023,0.005,104.0,104.0,102.0,13.4,1505.2,346.4,-0.8,1.8,2471.434,13.29,0.051,116.6
2023-10-01T01:37:03,42.805,6.029,0.015,-0.061,-0.043,103.0,102.0,103.0,13.4,1505.2,356.0,-0.8,1.8,2471.403,13.29,0.062,166.2
2023-10-01T01:40:03,42.805,6.029,0.025,-0.048,-0.002,104.0,102.0,102.0,13.3,1505.2,350.6,-0.8,1.8,2471.367,13.29,0.054,152.5
2023-10-01T01:43:03,42.805,6.029,0.022,-0.074,-0.048,104.0,104.0,103.0,13.3,1505.2,355.6,-0.8,1.8,2471.37,13.29,0.077,163.4
2023-10-01T01:46:03,42.805,6.029,0.032,-0.059,-0.017,104.0,103.0,102.0,13.4,1505.2,355.1,-0.8,1.8,2471.417,13.29,0.067,151.5
2023-10-01T01:49:03,42.805,6.029,0.037,-0.058,-0.04,103.0,102.0,102.0,13.3,1505.2,348.5,-0.7,1.8,2471.38,13.29,0.068,147.5
2023-10-01T01:52:03,42.805,6.029,0.025,-0.072,-0.034,103.0,103.0,102.0,13.4,1505.2,351.8,-0.8,1.8,2471.375,13.29,0.076,160.9
2023-10-01T01:55:03,42.805,6.029,0.027,-0.073,-0.056,103.0,104.0,102.0,13.4,1505.2,354.1,-0.7,1.8,2471.371,13.29,0.077,159.7
2023-10-01T01:58:03,42.805,6.029,0.022,-0.064,-0.024,103.0,103.0,103.0,13.4,1505.2,348.0,-0.8,1.8,2471.361,13.29,0.067,161.0
2023-10-01T03:04:02,42.805,6.029,0.005,-0.049,-0.028,103.0,103.0,102.0,13.4,1505.2,349.8,-0.8,1.8,2471.899,13.28,0.049,174.2
2023-10-01T03:07:03,42.805,6.029,0.014,-0.05,-0.005,104.0,102.0,103.0,13.4,1505.2,346.7,-0.8,1.9,2471.742,13.28,0.051,164.4
2023-10-01T03:10:03,42.805,6.029,0.044,-0.072,-0.084,104.0,102.0,102.0,13.4,1505.2,330.2,-0.7,1.8,2471.746,13.28,0.084,148.6
2023-10-01T03:13:03,42.805,6.029,0.053,-0.065,-0.04,103.0,103.0,102.0,13.4,1505.2,335.9,-0.8,1.8,2471.652,13.28,0.083,140.8
2023-10-01T03:16:03,42.805,6.029,0.017,-0.049,-0.01,104.0,103.0,102.0,13.4,1505.2,354.8,-0.8,1.8,2471.598,13.28,0.051,160.9
2023-10-01T03:19:03,42.805,6.029,0.055,-0.044,-0.008,103.0,103.0,103.0,13.4,1505.2,348.9,-0.8,1.8,2471.531,13.29,0.07,128.7
2023-10-01T03:22:03,42.805,6.029,0.026,-0.074,-0.012,104.0,102.0,102.0,13.3,1505.2,357.9,-0.8,1.8,2471.496,13.29,0.078,160.6
2023-10-01T03:25:03,42.805,6.029,0.026,-0.032,-0.033,104.0,103.0,102.0,13.3,1505.2,358.0,-0.8,1.8,2471.44,13.29,0.041,140.9
2023-10-01T03:28:03,42.805,6.029,0.001,-0.058,-0.015,103.0,103.0,102.0,13.4,1505.2,354.9,-0.8,1.8,2471.437,13.29,0.058,179.0
2023-10-01T03:31:03,42.805,6.029,0.025,-0.032,-0.026,103.0,103.0,102.0,13.3,1505.2,342.6,-0.7,1.8,2471.397,13.29,0.04,142.0
2023-10-01T03:34:03,42.805,6.029,0.064,-0.031,0.021,103.0,103.0,101.0,13.4,1505.2,337.4,-0.8,1.8,2471.422,13.29,0.071,115.8
2023-10-01T03:37:03,42.805,6.029,0.028,-0.038,-0.044,105.0,104.0,102.0,13.3,1505.2,337.6,-0.8,1.8,2471.4,13.29,0.047,143.6
2023-10-01T03:40:03,42.805,6.029,0.038,-0.055,-0.008,104.0,103.0,102.0,13.3,1505.2,347.6,-0.8,1.8,2471.397,13.29,0.066,145.4
2023-10-01T03:43:03,42.805,6.029,0.022,-0.064,-0.029,103.0,102.0,102.0,13.4,1505.2,356.1,-0.8,1.8,2471.402,13.29,0.067,161.0
2023-10-01T03:46:03,42.805,6.029,0.04,-0.046,0.005,104.0,102.0,103.0,13.4,1505.2,349.0,-0.8,1.8,2471.383,13.29,0.06,139.0
2023-10-01T03:49:03,42.805,6.029,0.072,-0.062,-0.025,103.0,103.0,102.0,13.3,1505.2,333.4,-0.8,1.8,2471.375,13.29,0.095,130.7
2023-10-01T03:52:03,42.805,6.029,0.052,-0.041,-0.038,103.0,103.0,101.0,13.4,1505.2,331.0,-0.8,1.8,2471.372,13.29,0.066,128.3
2023-10-01T03:55:03,42.805,6.029,0.008,-0.047,0.0,103.0,104.0,101.0,13.4,1505.2,356.8,-0.7,1.8,2471.345,13.29,0.047,170.3
2023-10-01T03:58:03,42.805,6.029,0.02,-0.049,-0.037,104.0,103.0,101.0,13.4,1505.2,339.8,-0.8,1.8,2471.389,13.29,0.052,157.8
2023-10-01T04:04:03,42.805,6.029,0.05,-0.068,-0.049,104.0,104.0,102.0,13.3,1505.2,341.9,-0.7,1.8,2471.408,13.28,0.084,143.7
2023-10-01T04:07:03,42.805,6.029,0.05,-0.059,-0.068,103.0,102.0,102.0,13.4,1505.2,329.4,-0.8,1.8,2471.434,13.28,0.077,139.7
2023-10-01T04:10:03,42.805,6.029,0.024,-0.067,-0.069,104.0,103.0,102.0,13.3,1505.2,353.5,-0.8,1.8,2471.418,13.29,0.071,160.3
2023-10-01T04:13:03,42.805,6.029,0.041,-0.047,-0.027,104.0,103.0,102.0,13.3,1505.2,340.9,-0.7,1.9,2471.398,13.29,0.062,138.9
2023-10-01T04:16:03,42.805,6.029,0.051,-0.051,-0.029,104.0,102.0,102.0,13.3,1505.2,327.8,-0.8,1.8,2471.422,13.29,0.072,135.0
2023-10-01T04:19:03,42.805,6.029,0.046,-0.054,-0.008,103.0,102.0,102.0,13.3,1505.2,340.9,-0.7,1.8,2471.421,13.29,0.07,139.6
2023-10-01T04:22:03,42.805,6.029,0.015,-0.05,-0.052,104.0,103.0,102.0,13.3,1505.2,350.9,-0.8,1.8,2471.422,13.29,0.052,163.3
2023-10-01T04:25:03,42.805,6.029,0.042,-0.05,-0.033,104.0,102.0,102.0,13.4,1505.2,342.1,-0.7,1.8,2471.4,13.29,0.065,140.0
2023-10-01T04:28:03,42.805,6.029,0.019,-0.047,-0.028,103.0,103.0,102.0,13.3,1505.2,347.2,-0.8,1.8,2471.415,13.29,0.05,158.0
2023-10-01T04:31:03,42.805,6.029,0.042,-0.051,-0.019,103.0,101.0,102.0,13.4,1505.2,341.2,-0.7,1.8,2471.385,13.29,0.066,140.5
2023-10-01T04:34:03,42.805,6.029,0.055,-0.056,-0.058,104.0,102.0,103.0,13.4,1505.2,330.3,-0.8,1.8,2471.401,13.29,0.078,135.5
2023-10-01T04:37:03,42.805,6.029,0.018,-0.034,-0.016,103.0,104.0,102.0,13.4,1505.2,350.2,-0.8,1.8,2471.474,13.29,0.038,152.1
2023-10-01T04:40:03,42.805,6.029,0.044,-0.047,-0.009,104.0,104.0,102.0,13.3,1505.2,345.7,-0.8,1.8,2471.423,13.29,0.064,136.9
2023-10-01T04:43:03,42.805,6.029,0.064,-0.057,-0.045,102.0,103.0,102.0,13.4,1505.2,337.2,-0.8,1.8,2471.419,13.29,0.085,131.7
2023-10-01T04:46:03,42.805,6.029,0.053,-0.043,-0.019,102.0,104.0,101.0,13.4,1505.2,340.2,-0.7,1.8,2471.435,13.29,0.068,129.1
2023-10-01T04:49:03,42.805,6.029,0.024,-0.036,-0.029,104.0,104.0,102.0,13.3,1505.2,345.7,-0.7,1.8,2471.408,13.29,0.043,146.3
2023-10-01T04:52:03,42.805,6.029,0.031,-0.052,-0.025,104.0,102.0,102.0,13.4,1505.2,348.5,-0.8,1.8,2471.457,13.29,0.06,149.2
2023-10-01T04:55:03,42.805,6.029,0.05,-0.056,-0.013,104.0,103.0,102.0,13.4,1505.2,345.1,-0.8,1.8,2471.459,13.29,0.075,138.2
2023-10-01T04:58:03,42.805,6.029,0.038,-0.042,-0.037,102.0,104.0,102.0,13.3,1505.2,345.5,-0.8,1.8,2471.488,13.29,0.056,137.9
2023-10-01T05:04:03,42.805,6.029,0.042,-0.036,-0.046,104.0,103.0,102.0,13.4,1505.2,327.5,-0.8,1.8,2471.487,13.28,0.055,130.6
2023-10-01T05:07:03,42.805,6.029,0.028,-0.042,-0.053,104.0,102.0,102.0,13.4,1505.2,337.8,-0.8,1.8,2471.492,13.28,0.05,146.3
2023-10-01T05:10:03,42.805,6.029,0.042,-0.037,-0.038,103.0,102.0,102.0,13.4,1505.2,333.0,-0.8,1.8,2471.466,13.29,0.055,131.4
2023-10-01T05:13:03,42.805,6.029,0.021,-0.054,-0.056,104.0,103.0,102.0,13.4,1505.2,332.6,-0.8,1.8,2471.481,13.29,0.057,158.8
2023-10-01T05:16:03,42.805,6.029,0.022,-0.03,-0.033,103.0,102.0,102.0,13.3,1505.2,346.4,-0.8,1.8,2471.465,13.29,0.037,143.7
2023-10-01T05:19:03,42.805,6.029,0.04,-0.043,-0.058,104.0,102.0,102.0,13.3,1505.2,343.3,-0.8,1.8,2471.459,13.29,0.058,137.1
2023-10-01T05:22:03,42.805,6.029,0.029,-0.058,-0.047,102.0,103.0,103.0,13.3,1505.2,357.9,-0.8,1.8,2471.505,13.29,0.064,153.4
2023-10-01T05:25:03,42.805,6.029,0.032,-0.065,-0.044,103.0,103.0,102.0,13.3,1505.2,355.6,-0.7,1.8,2471.436,13.29,0.072,153.8
2023-10-01T05:28:03,42.805,6.029,0.027,-0.056,-0.034,104.0,104.0,102.0,13.4,1505.2,354.9,-0.8,1.8,2471.498,13.29,0.062,154.3
2023-10-01T05:31:03,42.805,6.029,0.028,-0.034,-0.009,104.0,102.0,102.0,13.4,1505.2,357.9,-0.8,1.8,2471.476,13.29,0.044,140.5
2023-10-01T05:34:03,42.805,6.029,0.008,-0.041,-0.052,103.0,102.0,103.0,13.3,1505.2,343.6,-0.8,1.8,2471.493,13.29,0.041,169.0
2023-10-01T05:37:03,42.805,6.029,0.042,-0.055,-0.023,104.0,102.0,102.0,13.4,1505.2,348.0,-0.7,1.8,2471.508,13.29,0.069,142.6
2023-10-01T05:40:03,42.805,6.029,0.033,-0.073,-0.015,104.0,102.0,102.0,13.4,1505.2,357.0,-0.8,1.8,2471.545,13.29,0.08,155.7
2023-10-01T05:43:03,42.805,6.029,0.018,-0.066,-0.018,104.0,102.0,102.0,13.4,1505.2,355.7,-0.8,1.8,2471.478,13.29,0.068,164.7
2023-10-01T05:46:03,42.805,6.029,0.069,-0.062,-0.04,104.0,103.0,103.0,13.4,1505.2,335.5,-0.7,1.8,2471.497,13.29,0.092,131.9
2023-10-01T05:49:03,42.805,6.029,0.019,-0.036,-0.016,105.0,103.0,103.0,13.4,1505.2,337.7,-0.8,1.8,2471.507,13.29,0.04,152.2
2023-10-01T05:52:03,42.805,6.029,0.037,-0.041,-0.007,104.0,103.0,102.0,13.4,1505.2,343.7,-0.8,1.8,2471.528,13.29,0.055,137.9
2023-10-01T05:55:03,42.805,6.029,0.031,-0.047,0.001,103.0,103.0,103.0,13.4,1505.2,340.0,-0.8,1.8,2471.497,13.29,0.056,146.6
2023-10-01T05:58:03,42.805,6.029,0.039,-0.049,-0.034,104.0,103.0,102.0,13.3,1505.2,337.4,-0.8,1.8,2471.537,13.29,0.062,141.5
2023-10-01T06:04:03,42.805,6.029,0.033,-0.027,-0.02,104.0,103.0,102.0,13.4,1505.2,340.9,-0.8,1.8,2471.572,13.28,0.042,129.3
2023-10-01T06:07:03,42.805,6.029,0.033,-0.036,-0.037,103.0,103.0,102.0,13.4,1505.2,337.8,-0.8,1.8,2471.558,13.28,0.048,137.5
2023-10-01T06:10:03,42.805,6.029,0.034,-0.051,-0.056,103.0,103.0,103.0,13.4,1505.2,329.8,-0.8,1.8,2471.574,13.29,0.061,146.3
2023-10-01T06:13:03,42.805,6.029,0.04,-0.044,-0.025,103.0,103.0,102.0,13.4,1505.2,337.7,-0.8,1.8,2471.559,13.29,0.059,137.7
2023-10-01T06:16:03,42.805,6.029,0.035,-0.023,-0.04,104.0,103.0,102.0,13.4,1505.2,335.9,-0.8,1.8,2471.576,13.29,0.041,123.3
2023-10-01T06:19:03,42.805,6.029,0.044,-0.039,-0.044,104.0,103.0,103.0,13.4,1505.2,338.5,-0.8,1.8,2471.559,13.29,0.058,131.6
2023-10-01T06:22:03,42.805,6.029,0.038,-0.053,-0.009,102.0,102.0,103.0,13.3,1505.2,340.0,-0.8,1.8,2471.521,13.29,0.065,144.4
2023-10-01T06:25:03,42.805,6.029,0.028,-0.05,-0.005,104.0,104.0,102.0,13.4,1505.2,348.4,-0.8,1.8,2471.554,13.29,0.057,150.7
2023-10-01T06:28:03,42.805,6.029,0.021,-0.06,-0.016,103.0,103.0,102.0,13.4,1505.2,356.1,-0.8,1.8,2471.565,13.29,0.063,160.7
2023-10-01T06:31:03,42.805,6.029,0.038,-0.047,-0.022,103.0,103.0,102.0,13.4,1505.2,344.4,-0.8,1.8,2471.53,13.29,0.06,141.0
2023-10-01T06:34:03,42.805,6.029,0.029,-0.053,-0.023,103.0,103.0,102.0,13.4,1505.2,347.5,-0.8,1.8,2471.549,13.29,0.06,151.3
2023-10-01T06:37:03,42.805,6.029,0.033,-0.068,-0.021,104.0,104.0,102.0,13.4,1505.2,350.8,-0.8,1.8,2471.541,13.29,0.075,154.1
2023-10-01T06:40:03,42.805,6.029,0.02,-0.041,-0.025,103.0,103.0,103.0,13.4,1505.2,351.6,-0.7,1.8,2471.547,13.29,0.045,154.0
2023-10-01T06:43:03,42.805,6.029,0.019,-0.036,-0.046,103.0,103.0,102.0,13.4,1505.2,337.8,-0.8,1.8,2471.581,13.29,0.04,152.2
2023-10-01T06:46:03,42.805,6.029,0.032,-0.037,-0.032,104.0,103.0,102.0,13.3,1505.2,337.2,-0.8,1.8,2471.598,13.29,0.048,139.1
2023-10-01T06:49:03,42.805,6.029,0.037,-0.04,-0.057,104.0,103.0,103.0,13.3,1505.2,338.7,-0.8,1.8,2471.549,13.29,0.054,137.2
2023-10-01T06:52:03,42.805,6.029,0.052,-0.038,-0.034,104.0,104.0,102.0,13.3,1505.2,326.3,-0.7,1.8,2471.563,13.29,0.064,126.2
2023-10-01T06:55:03,42.805,6.029,0.023,-0.024,-0.01,104.0,103.0,103.0,13.3,1505.2,346.2,-0.7,1.8,2471.586,13.29,0.033,136.2
2023-10-01T06:58:03,42.805,6.029,0.052,-0.04,-0.011,104.0,103.0,103.0,13.4,1505.2,342.5,-0.8,1.8,2471.557,13.29,0.065,127.6
2023-10-01T07:04:03,42.805,6.029,0.056,-0.046,-0.019,103.0,103.0,103.0,13.4,1505.2,330.4,-0.8,1.8,2471.608,13.28,0.072,129.4
2023-10-01T07:07:03,42.805,6.029,0.039,-0.047,-0.043,104.0,104.0,103.0,13.4,1505.2,330.9,-0.7,1.8,2471.637,13.28,0.061,140.3
2023-10-01T07:10:03,42.805,6.029,0.013,-0.018,-0.015,105.0,103.0,102.0,13.3,1505.2,329.5,-0.7,1.8,2471.624,13.29,0.022,144.2
2023-10-01T07:13:03,42.805,6.029,0.032,-0.047,-0.019,104.0,102.0,102.0,13.4,1505.2,345.7,-0.8,1.8,2471.587,13.29,0.056,145.8
2023-10-01T07:16:03,42.805,6.029,0.048,-0.039,-0.009,104.0,103.0,102.0,13.4,1505.2,335.5,-0.8,1.8,2471.635,13.29,0.061,129.1
2023-10-01T07:19:03,42.805,6.029,0.038,-0.039,-0.018,104.0,104.0,102.0,13.4,1505.2,338.9,-0.8,1.8,2471.608,13.29,0.054,135.7
2023-10-01T07:22:03,42.805,6.029,0.034,-0.051,0.002,103.0,104.0,103.0,13.3,1505.2,356.9,-0.8,1.8,2471.601,13.29,0.061,146.3
2023-10-01T07:25:03,42.805,6.029,0.027,-0.05,-0.015,103.0,102.0,103.0,13.4,1505.2,333.8,-0.8,1.8,2471.575,13.29,0.056,151.6
2023-10-01T07:28:03,42.805,6.029,0.047,-0.03,-0.002,104.0,102.0,102.0,13.4,1505.2,340.2,-0.7,1.8,2471.621,13.29,0.055,122.6
2023-10-01T07:31:03,42.805,6.029,0.026,-0.05,-0.036,104.0,104.0,102.0,13.4,1505.2,340.4,-0.8,1.8,2471.602,13.29,0.056,152.5
2023-10-01T07:34:03,42.805,6.029,0.044,-0.072,-0.044,104.0,104.0,102.0,13.4,1505.2,347.5,-0.8,1.8,2471.589,13.29,0.084,148.6
2023-10-01T07:37:03,42.805,6.029,0.003,-0.044,-0.048,103.0,103.0,102.0,13.4,1505.2,355.7,-0.8,1.8,2471.593,13.29,0.044,176.1
2023-10-01T07:40:03,42.805,6.029,0.056,-0.037,-0.03,103.0,104.0,102.0,13.4,1505.2,330.9,-0.8,1.8,2471.6,13.29,0.067,123.5
2023-10-01T07:43:03,42.805,6.029,0.033,-0.053,-0.033,104.0,103.0,103.0,13.3,1505.2,346.2,-0.8,1.8,2471.598,13.29,0.062,148.1
2023-10-01T07:46:03,42.805,6.029,0.058,-0.033,-0.02,104.0,103.0,102.0,13.4,1505.2,332.5,-0.8,1.8,2471.619,13.29,0.066,119.6
2023-10-01T07:49:03,42.805,6.029,0.031,-0.034,-0.008,104.0,103.0,103.0,13.4,1505.2,344.0,-0.8,1.8,2471.591,13.29,0.046,137.6
2023-10-01T07:52:03,42.805,6.029,0.038,-0.046,-0.024,104.0,104.0,102.0,13.3,1505.2,339.4,-0.7,1.8,2471.593,13.29,0.059,140.4
2023-10-01T07:55:03,42.805,6.029,0.034,-0.041,-0.037,103.0,104.0,102.0,13.4,1505.2,338.2,-0.7,1.8,2471.621,13.29,0.053,140.3
2023-10-01T07:58:03,42.805,6.029,0.032,-0.035,-0.037,104.0,104.0,102.0,13.4,1505.2,331.3,-0.8,1.8,2471.608,13.29,0.047,137.6
2023-10-01T08:04:03,42.805,6.029,0.03,-0.059,-0.022,104.0,102.0,102.0,13.3,1505.2,347.5,-0.8,1.8,2471.619,13.28,0.066,153.0
2023-10-01T08:07:03,42.805,6.029,0.021,-0.047,-0.031,104.0,103.0,102.0,13.3,1505.2,344.0,-0.8,1.8,2471.649,13.28,0.051,155.9
2023-10-01T08:10:03,42.805,6.029,0.037,-0.05,-0.002,103.0,104.0,102.0,13.3,1505.2,344.8,-0.8,1.8,2471.629,13.29,0.062,143.5
2023-10-01T08:13:03,42.805,6.029,0.052,-0.077,-0.012,104.0,103.0,102.0,13.4,1505.2,345.9,-0.8,1.8,2471.629,13.29,0.092,146.0
2023-10-01T08:16:03,42.805,6.029,0.081,-0.047,-0.013,104.0,103.0,102.0,13.3,1505.2,333.0,-0.8,1.9,2471.605,13.29,0.093,120.1
2023-10-01T08:19:03,42.805,6.029,0.019,-0.019,-0.039,104.0,104.0,103.0,13.4,1505.2,335.7,-0.8,1.8,2471.634,13.29,0.026,135.0
2023-10-01T08:22:03,42.805,6.029,0.044,-0.05,-0.023,103.0,104.0,102.0,13.3,1505.2,332.6,-0.8,1.8,2471.619,13.29,0.066,138.7
2023-10-01T08:25:03,42.805,6.029,0.049,-0.036,-0.004,103.0,103.0,103.0,13.4,1505.2,330.0,-0.7,1.7,2471.614,13.29,0.06,126.3
2023-10-01T08:28:03,42.805,6.029,0.03,-0.033,-0.047,103.0,103.0,103.0,13.4,1505.2,340.8,-0.8,1.8,2471.568,13.29,0.044,137.7
2023-10-01T08:31:03,42.805,6.029,0.033,-0.042,-0.051,105.0,104.0,102.0,13.4,1505.2,348.0,-0.8,1.8,2471.605,13.29,0.053,141.8
2023-10-01T08:34:03,42.805,6.029,0.036,-0.048,0.015,105.0,104.0,103.0,13.4,1505.2,336.4,-0.8,1.8,2471.627,13.29,0.06,143.1
2023-10-01T08:37:03,42.805,6.029,0.034,-0.079,-0.033,103.0,103.0,103.0,13.4,1505.2,343.6,-0.8,1.8,2471.599,13.29,0.086,156.7
2023-10-01T08:40:03,42.805,6.029,0.026,-0.062,-0.024,105.0,103.0,102.0,13.3,1505.2,345.1,-0.8,1.8,2471.597,13.29,0.067,157.3
2023-10-01T08:43:03,42.805,6.029,0.03,-0.07,-0.028,104.0,103.0,102.0,13.3,1505.2,351.4,-0.8,1.8,2471.588,13.29,0.076,156.8
2023-10-01T08:46:03,42.805,6.029,0.033,-0.052,-0.034,103.0,104.0,102.0,13.4,1505.2,352.1,-0.8,1.8,2471.592,13.29,0.061,147.6
2023-10-01T08:49:03,42.805,6.029,0.046,-0.071,-0.027,103.0,104.0,102.0,13.3,1505.2,339.3,-0.8,1.8,2471.619,13.29,0.084,147.1
2023-10-01T08:52:03,42.805,6.029,0.036,-0.055,-0.033,104.0,104.0,101.0,13.4,1505.2,333.0,-0.8,1.8,2471.626,13.29,0.065,146.8
2023-10-01T08:55:03,42.805,6.029,0.064,-0.072,-0.037,104.0,103.0,103.0,13.3,1505.2,330.9,-0.8,1.8,2471.591,13.29,0.096,138.4
2023-10-01T08:58:03,42.805,6.029,0.059,-0.053,0.026,103.0,104.0,102.0,13.3,1505.2,347.8,-0.8,1.8,2471.598,13.29,0.079,131.9
2023-10-01T09:04:03,42.805,6.029,0.03,-0.061,-0.035,103.0,104.0,102.0,13.3,1505.2,345.7,-0.8,1.8,2471.631,13.28,0.067,153.8
2023-10-01T09:07:03,42.805,6.029,0.057,-0.056,-0.046,104.0,103.0,103.0,13.4,1505.2,342.2,-0.8,1.8,2471.626,13.28,0.079,134.5
2023-10-01T09:10:03,42.805,6.029,0.053,-0.078,-0.076,104.0,102.0,102.0,13.4,1505.2,337.8,-0.8,1.8,2471.595,13.29,0.094,145.8
2023-10-01T09:13:03,42.805,6.029,0.046,-0.033,-0.033,104.0,103.0,102.0,13.4,1505.2,335.9,-0.7,1.8,2471.644,13.29,0.056,125.7
2023-10-01T09:16:03,42.805,6.029,0.034,-0.044,-0.03,104.0,103.0,101.0,13.4,1505.2,342.8,-0.8,1.8,2471.624,13.29,0.055,142.3
2023-10-01T09:19:03,42.805,6.029,0.046,-0.062,-0.005,103.0,103.0,102.0,13.4,1505.2,350.8,-0.8,1.8,2471.628,13.29,0.077,143.4
2023-10-01T09:22:03,42.805,6.029,0.015,-0.028,-0.019,104.0,103.0,102.0,13.4,1505.2,348.2,-0.8,1.8,2471.598,13.29,0.031,151.8
2023-10-01T09:25:03,42.805,6.029,0.022,-0.055,-0.009,104.0,103.0,103.0,13.4,1505.2,350.9,-0.8,1.8,2471.604,13.29,0.059,158.2
2023-10-01T09:28:03,42.805,6.029,0.019,-0.027,-0.042,104.0,102.0,102.0,13.4,1505.2,336.4,-0.8,1.8,2471.555,13.29,0.033,144.9
2023-10-01T09:31:03,42.805,6.029,0.023,-0.038,-0.037,105.0,103.0,102.0,13.3,1505.2,348.0,-0.8,1.8,2471.595,13.29,0.044,148.8
2023-10-01T09:34:03,42.805,6.029,0.02,-0.036,-0.02,103.0,103.0,102.0,13.4,1505.2,349.3,-0.8,1.8,2471.6,13.29,0.041,150.9
2023-10-01T09:37:03,42.805,6.029,0.025,-0.063,-0.029,103.0,103.0,102.0,13.4,1505.2,355.6,-0.8,1.8,2471.605,13.29,0.067,158.4
2023-10-01T09:40:03,42.805,6.029,0.043,-0.048,-0.008,103.0,103.0,103.0,13.3,1505.2,346.6,-0.8,1.8,2471.562,13.29,0.064,138.1
2023-10-01T09:43:03,42.805,6.029,0.04,-0.058,-0.04,104.0,105.0,101.0,13.3,1505.2,349.9,-0.8,1.8,2471.556,13.29,0.07,145.4
2023-10-01T09:46:03,42.805,6.029,0.034,-0.029,-0.007,104.0,103.0,102.0,13.4,1505.2,331.9,-0.8,1.8,2471.576,13.29,0.044,130.5
2023-10-01T09:49:03,42.805,6.029,0.047,-0.044,-0.017,105.0,104.0,103.0,13.3,1505.2,342.5,-0.8,1.8,2471.573,13.29,0.064,133.1
2023-10-01T09:52:03,42.805,6.029,0.037,-0.042,-0.007,104.0,102.0,103.0,13.4,1505.2,335.9,-0.7,1.8,2471.557,13.29,0.055,138.6
2023-10-01T09:55:03,42.805,6.029,0.029,-0.059,-0.036,104.0,104.0,103.0,13.3,1505.2,359.0,-0.8,1.8,2471.59,13.29,0.065,153.8
2023-10-01T09:58:03,42.805,6.029,0.026,-0.051,-0.021,105.0,103.0,102.0,13.3,1505.2,347.5,-0.8,1.8,2471.568,13.29,0.057,153.0
2023-10-01T10:04:03,42.805,6.029,0.024,-0.044,-0.032,104.0,103.0,102.0,13.4,1505.2,341.5,-0.8,1.8,2471.646,13.28,0.05,151.4
2023-10-01T10:07:03,42.805,6.029,0.06,-0.057,-0.022,104.0,104.0,102.0,13.3,1505.2,329.1,-0.8,1.8,2471.609,13.29,0.082,133.5
2023-10-01T10:10:03,42.805,6.029,0.037,-0.05,-0.046,104.0,104.0,102.0,13.3,1505.2,328.5,-0.8,1.8,2471.6,13.29,0.062,143.5
2023-10-01T10:13:03,42.805,6.029,0.037,-0.048,-0.015,104.0,103.0,103.0,13.4,1505.2,347.8,-0.8,1.8,2471.61,13.29,0.06,142.4
2023-10-01T10:16:03,42.805,6.029,0.032,-0.062,-0.033,105.0,103.0,102.0,13.3,1505.2,344.0,-0.8,1.8,2471.594,13.29,0.069,152.7
2023-10-01T10:19:03,42.805,6.029,0.012,-0.034,-0.045,105.0,102.0,103.0,13.4,1505.2,345.7,-0.8,1.8,2471.559,13.29,0.036,160.6
2023-10-01T10:22:03,42.805,6.029,0.055,-0.072,-0.046,104.0,103.0,103.0,13.4,1505.2,354.1,-0.7,1.8,2471.564,13.29,0.09,142.6
2023-10-01T10:25:03,42.805,6.029,0.031,-0.067,-0.037,104.0,104.0,103.0,13.3,1505.2,353.4,-0.8,1.8,2471.583,13.29,0.073,155.2
2023-10-01T10:28:03,42.805,6.029,0.045,-0.025,-0.009,103.0,103.0,103.0,13.4,1505.2,340.4,-0.7,1.8,2471.559,13.29,0.051,119.1
2023-10-01T10:31:03,42.805,6.029,0.004,-0.041,-0.056,103.0,103.0,103.0,13.4,1505.2,356.9,-0.7,1.9,2471.561,13.29,0.041,174.4
2023-10-01T10:34:03,42.805,6.029,0.049,-0.06,0.004,105.0,103.0,102.0,13.3,1505.2,337.6,-0.7,1.8,2471.549,13.29,0.077,140.8
2023-10-01T10:37:03,42.805,6.029,0.023,-0.059,-0.023,104.0,103.0,102.0,13.4,1505.2,349.5,-0.8,1.8,2471.563,13.29,0.063,158.7
2023-10-01T10:40:03,42.805,6.029,0.027,-0.038,-0.004,104.0,105.0,102.0,13.3,1505.2,351.0,-0.8,1.8,2471.538,13.29,0.046,144.6
2023-10-01T10:43:03,42.805,6.029,0.035,-0.059,0.014,104.0,103.0,103.0,13.3,1505.2,337.2,-0.8,1.8,2471.527,13.29,0.068,149.3
2023-10-01T10:46:03,42.805,6.029,0.06,-0.049,-0.031,104.0,103.0,103.0,13.4,1505.2,329.3,-0.7,1.8,2471.538,13.29,0.077,129.2
2023-10-01T10:49:03,42.805,6.029,0.035,-0.047,-0.04,103.0,103.0,102.0,13.4,1505.2,347.2,-0.8,1.8,2471.55,13.29,0.058,143.3
2023-10-01T10:52:03,42.805,6.029,0.023,-0.057,-0.031,104.0,104.0,103.0,13.3,1505.2,353.5,-0.8,1.8,2471.558,13.29,0.061,158.0